Location: Oak Glen
(34.0495°N, 116.9470°E)
Time: 14:38:11
(UTC-08:00)

Tiangong 2 - Pass Details

Date: 08 October 2017
Orbit: 386 x 390 km, 42.8° (Epoch: 16 December)

Event Time Altitude Azimuth Distance (km) Brightness Sun altitude
Exits shadow 13:36:11 67° 110° (ESE) 424 1.3 -20.7°
Drops below altitude 10° 13:39:08 10° 65° (ENE) 1,420 5.0 -20.1°
Sets 13:41:13 0° 63° (ENE) 2,278 6.2 -19.7°
